Weather observations for the past three days for
Nuevo Laredo International
Imperial (Metric)
Date Time (cdt) Wind (mph) Vis. (mi.) Weather Sky Cond. Temperature (ºF) Relative Humidity Wind Chill (°F) Heat Index (°F) Pressure Precipitation (in)
Air Dwpt 6 hour altimeter (in) sea level (mb) 1 hr 3 hr 6 hr
Max. Min.
01 15:40 SE 9 10.00 Clear SKC 104 60.8 24% 105 29.86 1009.4
01 14:40 Calm 10.00 Clear SKC 100.4 64.4 31% 104 29.89 0.0
01 13:40 E 12 10.00 Clear SKC 100.4 68 35% 106 29.92 0.0
01 12:40 SE 8 10.00 Clear SKC 96.8 69.8 42% 103 29.95 1012.4
01 11:40 SE 7 10.00 Clear SKC 91.4 73.4 56% 100 29.97 0.0
01 10:40 SE 6 10.00 Clear SKC 87.8 73.4 62% 96 29.97 0.0
01 09:40 E 10 7.00 Clear SKC 84.2 73.4 70% 91 29.97 1013.0
01 08:40 E 9 7.00 Clear SKC 80.6 73.4 79% 85 29.96 0.0
01 07:01 E 6 7.00 Clear SKC 80.6 73.4 79% 85 29.94 1012.1
31 19:40 E 12 10.00 Clear SKC 102.2 59 24% 102 29.82 0.0
31 17:40 E 15 8.00 Clear SKC 104 60.8 24% 105 29.82 0.0
31 16:40 E 9 8.00 Clear SKC 104 60.8 24% 105 29.83 0.0
31 15:42 E 14 8.00 Clear SKC 104 62.6 26% 107 29.86 1009.5
31 14:40 E 14 7.00 Clear SKC 102.2 62.6 27% 104 29.89 0.0
31 13:40 E 12 7.00 Clear SKC 100.4 69.8 37% 108 29.92 0.0
31 12:40 E 10 7.00 Clear SKC 96.8 73.4 47% 107 29.94 1012.1
31 11:40 E 7 7.00 Clear SKC 91.4 75.2 59% 103 29.96 0.0
31 10:40 SE 7 6.00 A Few Clouds FEW015 89.6 75.2 63% 100 29.96 0.0
31 09:41 SE 9 6.00 Partly Cloudy SCT015 84.2 75.2 74% 92 29.96 1012.8
31 08:40 E 7 6.00 A Few Clouds FEW015 82.4 75.2 79% 89 29.96 0.0
31 07:00 E 6 7.00 Clear SKC 80.6 73.4 79% 85 29.93 1011.3
30 19:41 E 13 10.00 Partly Cloudy SCT030TCU 100.4 64.4 31% 104 29.82 0.0
30 18:40 SE 10 10.00 Partly Cloudy SCT035TCU 100.4 64.4 31% 104 29.82 1007.9
30 17:40 E 13 10.00 Partly Cloudy SCT030TCU 102.2 64.4 29% 106 29.82 0.0
30 16:40 SE 8 10.00 Partly Cloudy SCT030TCU 102.2 64.4 29% 106 29.83 0.0
30 15:41 SE 10 10.00 Partly Cloudy SCT030TCU 100.4 66.2 33% 105 29.86 1009.4
30 14:44 S 6 G 20 10.00 Partly Cloudy SCT030 100.4 66.2 33% 105 29.9 0.0
30 13:40 E 9 10.00 A Few Clouds FEW030 98.6 71.6 42% 108 29.93 0.0
30 12:42 E 8 10.00 A Few Clouds FEW030 95 73.4 50% 105 29.97 1013.0
30 11:40 Calm 10.00 Clear SKC 93.2 73.4 53% 103 29.99 0.0
30 10:40 SE 7 10.00 A Few Clouds FEW200 87.8 73.4 62% 96 29.99 0.0
30 09:41 SE 8 10.00 Clear SKC 84.2 75.2 74% 92 29.98 1013.5
30 08:44 SE 8 10.00 Clear SKC 82.4 75.2 79% 89 29.97 0.0
30 07:00 E 7 10.00 Clear SKC 80.6 73.4 79% 85 29.96 1012.4
29 19:40 NE 14 10.00 Mostly Cloudy BKN025CB 96.8 66.2 37% 100 29.89 0.0
29 18:43 E 12 10.00 Mostly Cloudy BKN025CB 100.4 64.4 31% 104 29.88 1009.8
29 17:40 SE 12 10.00 Partly Cloudy SCT030TCU 102.2 64.4 29% 106 29.87 0.0
29 16:40 E 13 10.00 Partly Cloudy SCT030TCU 104 64.4 28% 108 29.9 0.0
Date Time (cdt) Wind (mph) Vis. (mi.) Weather Sky Cond. Air Dwpt Max. Min. Relative Humidity Wind Chill (°F) Heat Index (°F) altimeter (in) sea level (mb) 1 hr 3 hr 6 hr
6 hour
Temperature (ºF) Pressure Precipitation (in)